1516143600.02,31643,8.5,71168.8,-13.91,-44.41,-44.21,0,*6F
1516143601.28,31644,8.5,71162.5,-13.91,-43.81,-43.87,0,*68
1516143602.57,31645,8.5,71122.3,-13.91,-43.81,-43.81,0,*6F
1516143603.84,31646,8.5,71104.8,-13.91,-43.81,-43.49,0,*68
1516143605.08,31647,8.5,71098.0,-13.89,-43.87,-43.67,0,*6A
1516143606.36,31648,8.5,71106.3,-13.89,-43.81,-43.67,0,*63
1516143607.61,31649,8.5,71136.0,-13.87,-43.61,-43.49,0,*6E
1516143608.86,31650,8.44,71130.3,-13.87,-43.61,-43.41,0,*6E
1516143610.11,31651,8.5,71152.5,-13.89,-43.67,-43.61,0,*65
1516143611.38,31652,8.5,71118.5,-13.87,-43.61,-43.55,0,*69
1516143612.63,31653,8.5,71126.0,-13.87,-43.75,-43.61,0,*6A
1516143613.9,31654,8.5,71114.0,-13.89,-43.81,-43.81,0,*66
1516143615.17,31655,8.5,71132.3,-13.89,-44.01,-44.01,0,*67
1516143616.46,31656,8.44,71138.8,-13.87,-44.01,-43.81,0,*65
1516143617.72,31657,8.5,71136.8,-13.87,-43.81,-43.75,0,*60
1516143618.99,31658,8.5,71104.8,-13.89,-43.67,-43.81,0,*62
1516143620.26,31659,8.5,71110.5,-13.89,-43.81,-43.81,0,*6B
1516143621.51,31660,8.44,71118.3,-13.87,-43.61,-43.61,0,*6F
1516143622.78,31661,8.5,71120.8,-13.87,-43.75,-43.55,0,*6C
1516143624.03,31662,8.44,71104.3,-13.87,-43.75,-43.61,0,*68
1516143625.27,31663,8.5,71088.0,-13.87,-43.95,-43.95,0,*6C
1516143626.53,31664,8.5,71066.5,-13.87,-43.81,-43.87,0,*6D
1516143627.78,31665,8.5,71082.3,-13.87,-43.95,-43.75,0,*64
1516143629.06,31666,8.5,71064.5,-13.87,-43.81,-43.81,0,*69
1516143630.33,31667,8.5,71064.8,-13.87,-44.01,-43.95,0,*62
1516143631.62,31668,8.44,71086.0,-13.87,-44.13,-44.01,0,*64
1516143632.87,31669,8.44,71098.3,-13.89,-44.21,-43.87,0,*63
1516143634.12,31670,8.5,71092.8,-13.89,-44.07,-44.01,0,*66
1516143635.36,31671,8.5,71092.5,-13.87,-43.95,-43.75,0,*61
1516143636.65,31672,8.5,71100.3,-13.87,-43.81,-43.81,0,*6C
1516143637.91,31673,8.44,71084.8,-13.87,-43.95,-44.01,0,*67
1516143639.2,31674,8.5,71098.8,-13.87,-44.01,-44.01,0,*6A
1516143640.45,31675,8.44,71160.5,-13.89,-44.07,-44.01,0,*63
1516143641.73,31676,8.44,71098.5,-13.89,-43.67,-43.67,0,*66
1516143642.98,31677,8.5,71106.3,-13.87,-43.75,-43.41,0,*6E
1516143644.27,31678,8.5,71096.5,-13.87,-43.55,-43.29,0,*6D
1516143645.5,31679,8.5,71082.0,-13.89,-43.61,-43.15,0,*6A
1516143646.74,31680,8.5,71074.8,-13.89,-43.49,-43.21,0,*61
1516143647.97,31681,8.5,71050.8,-13.85,-43.61,-43.35,0,*63
1516143649.22,31682,8.5,71076.0,-13.85,-43.81,-43.61,0,*6F
1516143650.48,31683,8.5,71104.3,-13.87,-43.81,-43.75,0,*69
1516143651.73,31684,8.5,71104.5,-13.87,-43.95,-43.61,0,*6E
1516143652.97,31685,8.5,71092.0,-13.85,-43.75,-43.29,0,*6F
1516143654.22,31686,8.44,71088.5,-13.85,-43.55,-43.15,0,*61
1516143655.49,31687,8.5,71074.3,-13.85,-43.55,-43.29,0,*6F
1516143656.73,31688,8.5,71082.5,-13.85,-43.75,-43.55,0,*69
1516143657.98,31689,8.5,71082.5,-13.85,-44.01,-43.75,0,*6E
1516143659.23,31690,8.44,71070.5,-13.85,-43.81,-43.41,0,*6E
1516143660.5,31691,8.5,71078.3,-13.87,-43.81,-43.61,0,*6F
1516143661.77,31692,8.5,71068.8,-13.87,-43.81,-43.41,0,*6E
1516143663.03,31693,8.5,71072.3,-13.87,-43.81,-43.61,0,*6D
1516143664.3,31694,8.44,71106.3,-13.87,-43.81,-43.61,0,*6A
1516143665.55,31695,8.5,71122.3,-13.87,-43.61,-43.61,0,*65
1516143666.78,31696,8.44,71094.0,-13.89,-43.75,-43.61,0,*6D
1516143668.02,31697,8.5,71088.0,-13.87,-43.95,-43.61,0,*6C
1516143669.27,31698,8.5,71086.3,-13.87,-43.95,-43.95,0,*68
1516143670.53,31699,8.44,71094.8,-13.87,-43.95,-43.81,0,*6C
1516143671.81,31700,8.5,71114.5,-13.89,-43.67,-43.67,0,*66
1516143673.04,31701,8.5,71126.0,-13.89,-43.61,-43.49,0,*6D
1516143674.27,31702,8.5,71128.0,-13.89,-43.61,-43.41,0,*66
1516143675.56,31703,8.5,71128.8,-13.87,-43.55,-43.29,0,*60
1516143676.79,31704,8.5,71124.3,-13.89,-43.61,-43.35,0,*63
1516143678.02,31705,8.5,71122.5,-13.89,-43.61,-43.35,0,*62
1516143679.25,31706,8.44,71122.3,-13.89,-43.61,-43.35,0,*61
1516143680.5,31707,8.5,71124.8,-13.89,-43.49,-43.21,0,*6F
1516143681.75,31708,8.44,71130.5,-13.89,-43.49,-43.21,0,*60
1516143683.02,31709,8.5,71156.3,-13.91,-43.41,-43.21,0,*60
1516143684.28,31710,8.5,71160.5,-13.91,-43.35,-43.21,0,*6B
1516143685.55,31711,8.5,71156.5,-13.91,-43.21,-43.15,0,*68
1516143686.82,31712,8.5,71154.0,-13.91,-43.21,-43.35,0,*69
1516143688.06,31713,8.5,71156.0,-13.91,-43.15,-43.41,0,*6C
1516143689.31,31714,8.5,71178.8,-13.91,-43.35,-43.49,0,*61
1516143690.58,31715,8.5,71170.8,-13.91,-43.21,-43.41,0,*6D
1516143691.82,31716,8.5,71164.0,-13.91,-43.15,-43.41,0,*69
1516143693.09,31717,8.5,71160.3,-13.91,-43.01,-43.21,0,*6B
1516143694.38,31718,8.5,71156.0,-13.91,-43.21,-43.21,0,*66
1516143695.62,31719,8.5,71158.0,-13.91,-43.35,-43.49,0,*6C
1516143696.89,31720,8.5,71154.3,-13.91,-43.61,-43.81,0,*63
1516143698.16,31721,8.5,71164.5,-13.91,-43.61,-43.81,0,*62
1516143699.41,31722,8.5,71162.5,-13.89,-43.61,-43.81,0,*68
1516143700.71,31723,8.5,71160.3,-13.91,-43.67,-43.67,0,*6E
1516143701.96,31724,8.5,71162.5,-13.91,-43.61,-43.35,0,*68
1516143703.2,31725,8.5,71152.5,-13.91,-43.15,-43.35,0,*6A
1516143704.47,31726,8.5,71160.0,-13.91,-43.21,-43.49,0,*65
1516143705.73,31727,8.5,71174.5,-13.91,-43.21,-43.61,0,*6E
1516143706.98,31728,8.5,71166.0,-13.93,-43.35,-43.67,0,*60
1516143708.2,31729,8.5,71172.5,-13.93,-43.61,-43.87,0,*6E
1516143709.41,31730,8.44,71174.8,-13.93,-43.61,-43.87,0,*66
1516143710.63,31731,8.5,71182.5,-13.93,-43.49,-43.87,0,*6D
1516143711.87,31732,8.5,71184.0,-13.93,-43.49,-43.67,0,*60
1516143713.13,31733,8.5,71186.8,-13.93,-43.49,-43.67,0,*61
1516143714.37,31734,8.5,71188.8,-13.93,-43.61,-43.67,0,*6C
1516143715.61,31735,8.5,71188.8,-13.93,-43.49,-43.81,0,*6F
1516143716.86,31736,8.5,71196.8,-13.93,-43.61,-43.67,0,*6E
1516143718.1,31737,8.5,71190.5,-13.93,-43.61,-43.81,0,*67
1516143719.35,31738,8.5,71188.5,-13.93,-43.61,-43.67,0,*60
1516143720.62,31739,8.5,71188.3,-13.95,-43.55,-43.75,0,*63
1516143721.89,31740,8.5,71192.0,-13.95,-43.67,-43.75,0,*6C
1516143723.15,31741,8.5,71176.5,-13.93,-43.81,-43.81,0,*68
1516143724.38,31742,8.5,71168.8,-13.93,-43.81,-43.87,0,*6D
1516143725.62,31743,8.5,71168.8,-13.93,-43.87,-43.81,0,*6C
1516143726.85,31744,8.5,71178.3,-13.95,-43.87,-44.07,0,*64
1516143728.1,31745,8.5,71170.3,-13.95,-44.07,-43.95,0,*66
1516143729.37,31746,8.5,71172.0,-13.95,-43.95,-44.01,0,*63
1516143730.64,31747,8.5,71168.0,-13.99,-44.01,-44.01,0,*64
1516143731.9,31748,8.5,71168.5,-13.99,-44.01,-43.81,0,*64
1516143733.17,31749,8.5,71176.5,-13.95,-43.75,-43.55,0,*64
1516143734.47,31750,8.44,71174.5,-13.95,-43.55,-43.55,0,*6E
1516143735.72,31751,8.44,71178.8,-13.99,-43.55,-43.35,0,*65
1516143737.01,31752,8.5,71178.8,-13.95,-43.67,-43.29,0,*66
1516143738.25,31753,8.5,71172.5,-13.99,-43.81,-43.35,0,*6E
1516143739.52,31754,8.5,71176.3,-13.99,-43.81,-43.55,0,*6F
1516143740.77,31755,8.5,71172.0,-13.99,-43.81,-43.49,0,*63
1516143741.99,31756,8.5,71172.3,-13.99,-43.95,-43.61,0,*6F
1516143743.26,31757,8.5,71174.8,-13.99,-43.81,-43.55,0,*6C
1516143744.5,31758,8.5,71174.3,-13.99,-43.81,-43.49,0,*6E
1516143745.75,31759,8.5,71174.5,-13.99,-43.81,-43.35,0,*64
1516143747.04,31760,8.5,71174.3,-14.01,-43.55,-43.29,0,*6C
1516143748.28,31761,8.5,71176.5,-14.01,-43.75,-43.49,0,*69
1516143749.54,31762,8.5,71174.3,-14.01,-43.61,-43.35,0,*64
1516143750.81,31763,8.5,71178.3,-14.01,-43.61,-43.55,0,*63
1516143752.08,31764,8.5,71174.0,-14.01,-43.55,-43.35,0,*65
1516143753.35,31765,8.5,71168.8,-14.01,-43.35,-43.29,0,*6F
1516143754.57,31766,8.44,71166.5,-14.03,-43.41,-43.35,0,*60
1516143755.78,31767,8.5,71164.3,-14.03,-43.35,-43.35,0,*62
1516143757.0,31768,8.5,71162.3,-14.03,-43.41,-43.15,0,*6C
1516143758.24,31769,8.5,71160.0,-14.03,-43.41,-42.95,0,*64
1516143759.5,31770,8.5,71166.5,-14.03,-43.21,-42.95,0,*6A
1516143760.75,31771,8.44,71164.3,-14.01,-43.15,-42.75,0,*60
1516143761.99,31772,8.5,71160.3,-14.03,-43.09,-42.75,0,*6C
1516143763.23,31773,8.5,71168.8,-13.99,-43.15,-42.57,0,*64
1516143764.47,31774,8.5,71158.5,-14.03,-43.01,-42.45,0,*61
1516143765.74,31775,8.5,71162.3,-14.01,-43.15,-42.69,0,*69
1516143766.99,31776,8.5,71164.8,-14.03,-43.21,-42.45,0,*61
1516143768.22,31777,8.5,71160.8,-14.03,-43.15,-42.57,0,*64
1516143769.5,31778,8.44,71164.5,-14.01,-43.09,-42.51,0,*62
1516143770.73,31779,8.5,71168.5,-14.03,-43.21,-42.63,0,*6A
1516143771.97,31780,8.44,71162.0,-14.03,-43.01,-42.45,0,*6A
1516143773.21,31781,8.44,71166.3,-14.03,-43.15,-42.45,0,*6E
1516143774.44,31782,8.5,71166.3,-14.03,-43.15,-42.57,0,*6E
1516143775.67,31783,8.5,71174.5,-14.03,-43.15,-42.57,0,*6F
1516143776.95,31784,8.5,71174.3,-14.01,-42.95,-42.63,0,*64
1516143778.24,31785,8.5,71178.3,-14.01,-43.09,-42.57,0,*66
1516143779.48,31786,8.5,71176.0,-14.03,-42.83,-42.63,0,*63
1516143780.73,31787,8.5,71170.0,-14.03,-42.95,-42.75,0,*62
1516143782.0,31788,8.5,71168.8,-14.05,-42.95,-42.75,0,*6B
1516143783.29,31789,8.5,71168.0,-14.05,-42.83,-42.83,0,*64
1516143784.54,31790,8.5,71170.5,-14.03,-43.01,-42.95,0,*66
1516143785.79,31791,8.5,71166.0,-14.03,-42.95,-43.01,0,*67
1516143787.03,31792,8.5,71164.5,-14.03,-43.01,-43.21,0,*6A
1516143788.3,31793,8.5,71164.0,-14.05,-43.21,-43.35,0,*6A
1516143789.51,31794,8.5,71164.3,-14.03,-43.15,-43.41,0,*6F
1516143790.78,31795,8.44,71164.3,-14.05,-43.15,-43.55,0,*6D
1516143792.05,31796,8.44,71166.0,-14.05,-43.15,-43.55,0,*6E
1516143793.35,31797,8.5,71176.0,-14.05,-42.95,-43.55,0,*66
1516143794.63,31798,8.5,71172.5,-14.05,-43.01,-43.55,0,*65
1516143795.93,31799,8.5,71176.3,-14.05,-42.95,-43.55,0,*68
1516143797.21,31800,8.5,71178.3,-14.05,-43.01,-43.55,0,*6B
1516143798.5,31801,8.5,71182.0,-14.05,-43.21,-43.55,0,*68
1516143799.77,31802,8.5,71182.3,-14.05,-43.15,-43.55,0,*6C
1516143801.01,31803,8.5,71184.8,-14.05,-43.41,-43.61,0,*6B
1516143802.31,31804,8.5,71180.3,-14.05,-43.55,-43.67,0,*6F
1516143803.58,31805,8.5,71180.0,-14.05,-43.61,-43.81,0,*61
1516143804.88,31806,8.5,71186.3,-14.05,-43.55,-43.67,0,*6D
1516143806.15,31807,8.5,71186.0,-14.05,-43.41,-43.55,0,*68
1516143807.4,31808,8.5,71180.5,-14.05,-43.61,-43.61,0,*62
1516143808.69,31809,8.5,71180.3,-14.05,-43.67,-43.81,0,*6B
1516143809.98,31810,8.5,71182.0,-14.05,-43.81,-44.01,0,*64
1516143811.27,31811,8.44,71178.5,-14.05,-43.81,-43.67,0,*62
1516143812.57,31812,8.5,71182.5,-14.05,-43.81,-43.67,0,*61
1516143813.85,31813,8.5,71168.5,-14.05,-43.81,-43.81,0,*68
1516143815.12,31814,8.5,71170.0,-14.05,-44.01,-43.87,0,*66
1516143816.39,31815,8.5,71172.5,-14.05,-44.07,-44.01,0,*68
1516143817.62,31816,8.5,71172.5,-14.05,-43.87,-43.87,0,*6D
1516143818.86,31817,8.5,71174.5,-14.09,-43.87,-43.75,0,*6D
1516143820.16,31818,8.5,71176.3,-14.05,-43.55,-43.55,0,*63
1516143821.4,31819,8.5,71164.3,-14.05,-43.35,-43.35,0,*62
1516143822.65,31820,8.5,71178.3,-14.05,-43.41,-43.35,0,*6B
1516143823.9,31821,8.5,71178.8,-14.09,-43.49,-43.41,0,*6D
1516143825.15,31822,8.5,71166.5,-14.09,-43.49,-43.61,0,*6C
1516143826.4,31823,8.5,71170.5,-14.05,-43.41,-43.35,0,*68
1516143827.67,31824,8.5,71178.5,-14.05,-43.41,-43.55,0,*69
1516143828.92,31825,8.5,71182.8,-14.05,-43.41,-43.35,0,*6E
1516143830.17,31826,8.5,71176.0,-14.05,-43.61,-43.61,0,*6E
1516143831.47,31827,8.5,71164.8,-14.05,-43.67,-43.67,0,*6F
1516143832.76,31828,8.5,71158.8,-14.05,-43.81,-44.01,0,*6F
1516143833.99,31829,8.5,71150.8,-14.05,-43.87,-43.87,0,*61
1516143835.29,31830,8.5,71156.5,-14.05,-43.81,-43.67,0,*61
1516143836.56,31831,8.5,71148.3,-14.05,-43.81,-43.61,0,*66
1516143837.82,31832,8.5,71158.3,-14.05,-43.35,-43.21,0,*6E
1516143839.06,31833,8.5,71126.3,-14.05,-43.35,-43.15,0,*68
1516143840.31,31834,8.5,71096.8,-14.05,-43.01,-43.01,0,*6D
1516143841.61,31835,8.5,71098.5,-14.05,-42.95,-42.83,0,*6B
1516143842.88,31836,8.5,71106.0,-14.03,-42.95,-42.95,0,*69
1516143844.15,31837,8.5,71104.5,-14.03,-42.95,-42.83,0,*6F
1516143845.36,31838,8.5,71102.8,-14.03,-43.15,-43.15,0,*67
1516143846.59,31839,8.5,71116.3,-14.03,-43.35,-43.21,0,*63
1516143847.88,31840,8.5,71120.3,-14.01,-43.29,-43.29,0,*6A
1516143849.1,31841,8.5,71130.8,-14.03,-43.41,-43.41,0,*69
1516143850.35,31842,8.5,71138.3,-14.01,-43.35,-43.35,0,*68
1516143851.59,31843,8.5,71138.8,-14.03,-43.61,-43.55,0,*6C
1516143852.86,31844,8.5,71142.0,-14.03,-43.81,-43.55,0,*65
1516143854.1,31845,8.5,71140.3,-14.03,-43.67,-43.61,0,*6B
1516143855.35,31846,8.5,71152.0,-14.01,-43.61,-43.61,0,*6C
1516143856.61,31847,8.5,71148.3,-14.03,-43.81,-44.01,0,*60
1516143857.86,31848,8.5,71154.5,-14.03,-43.81,-44.01,0,*6F
1516143859.13,31849,8.5,71156.3,-14.03,-43.67,-44.01,0,*66
1516143860.39,31850,8.5,71162.3,-14.03,-43.81,-44.21,0,*64
1516143861.65,31851,8.5,71164.0,-14.03,-44.01,-44.21,0,*6A
1516143862.89,31852,8.5,71158.0,-14.03,-44.01,-44.27,0,*6F
1516143864.19,31853,8.5,71148.3,-14.01,-44.01,-44.21,0,*6A
1516143865.45,31854,8.5,71152.0,-14.03,-44.21,-44.47,0,*6D
1516143866.71,31855,8.5,71158.0,-14.03,-44.21,-44.47,0,*6C
1516143867.92,31856,8.5,71162.5,-14.03,-44.41,-44.41,0,*6F
1516143869.16,31857,8.5,71178.0,-14.03,-44.21,-44.27,0,*68
1516143870.46,31858,8.5,71162.5,-14.05,-43.67,-43.67,0,*67
1516143871.75,31859,8.5,71146.5,-14.05,-43.55,-43.55,0,*66
1516143873.05,31860,8.5,71128.3,-14.01,-43.55,-43.55,0,*68
1516143874.31,31861,8.5,71134.8,-14.03,-43.67,-43.67,0,*6B
1516143875.57,31862,8.5,71136.0,-14.03,-43.81,-43.81,0,*68
1516143876.8,31863,8.5,71144.8,-14.03,-43.87,-44.01,0,*60
1516143878.07,31864,8.5,71154.8,-14.01,-44.01,-44.27,0,*68
1516143879.36,31865,8.5,71174.5,-14.01,-44.21,-44.33,0,*6E
1516143880.65,31866,8.5,71186.5,-14.01,-44.13,-44.13,0,*6E
1516143881.89,31867,8.5,71188.0,-14.03,-44.07,-44.01,0,*6B
1516143883.15,31868,8.5,71192.3,-14.01,-43.95,-44.01,0,*6A
1516143884.39,31869,8.5,71184.5,-14.03,-44.41,-44.21,0,*65
1516143885.69,31870,8.5,71174.0,-14.01,-44.33,-44.21,0,*6A
1516143886.92,31871,8.5,71170.8,-13.99,-44.41,-44.33,0,*6B
1516143888.13,31872,8.5,71166.8,-14.03,-44.61,-44.41,0,*6B
1516143889.37,31873,8.5,71172.8,-14.03,-44.47,-44.41,0,*6E
1516143890.58,31874,8.5,71176.0,-14.03,-44.41,-44.41,0,*6F
1516143891.87,31875,8.5,71180.8,-14.01,-44.13,-44.21,0,*6D
1516143893.16,31876,8.5,71174.5,-14.01,-44.33,-44.33,0,*6F
1516143894.39,31877,8.5,71180.8,-14.03,-44.61,-44.47,0,*68
1516143895.61,31878,8.5,71180.3,-14.03,-44.79,-44.61,0,*6A
1516143896.88,31879,8.5,71186.8,-14.01,-44.73,-44.61,0,*63
1516143898.11,31880,8.5,71182.8,-14.03,-44.61,-44.47,0,*60
1516143899.35,31881,8.5,71178.8,-14.03,-44.79,-44.47,0,*68
1516143900.58,31882,8.5,71178.8,-14.03,-44.87,-44.67,0,*68
1516143901.8,31883,8.5,71176.8,-14.03,-44.87,-44.79,0,*66
1516143903.06,31884,8.5,71172.5,-14.03,-44.93,-44.67,0,*6B
1516143904.3,31885,8.5,71170.0,-14.03,-44.87,-44.67,0,*6F
1516143905.57,31886,8.5,71164.5,-14.05,-44.93,-44.79,0,*60
1516143906.84,31887,8.5,71160.5,-14.05,-44.79,-44.47,0,*68
1516143908.11,31888,8.5,71158.8,-14.05,-44.61,-44.47,0,*6E
1516143909.39,31889,8.5,71156.8,-14.05,-44.47,-44.47,0,*6B
1516143910.63,31890,8.5,71156.0,-14.05,-44.41,-44.27,0,*63
1516143911.87,31891,8.5,71152.0,-14.05,-44.41,-44.41,0,*62
1516143913.13,31892,8.5,71150.0,-14.05,-44.47,-44.41,0,*67
1516143914.37,31893,8.5,71142.8,-14.03,-44.79,-44.47,0,*6B
1516143915.62,31894,8.5,71140.3,-14.05,-44.87,-44.79,0,*66
1516143916.87,31895,8.5,71136.3,-14.05,-44.87,-44.79,0,*67
1516143918.14,31896,8.5,71138.5,-14.05,-44.93,-44.61,0,*68
1516143919.41,31897,8.5,71134.3,-14.05,-44.67,-44.61,0,*62
1516143920.68,31898,8.5,71128.5,-14.05,-44.79,-44.47,0,*66
1516143921.95,31899,8.5,71130.8,-14.09,-44.73,-44.53,0,*64
1516143923.23,31900,8.5,71132.8,-14.09,-44.73,-44.47,0,*60
1516143924.5,31901,8.5,71132.8,-14.05,-44.79,-44.47,0,*67
1516143925.77,31902,8.5,71132.0,-14.05,-44.67,-44.41,0,*6D
1516143927.05,31903,8.5,71136.0,-14.05,-44.67,-44.47,0,*6A
1516143928.34,31904,8.5,71144.3,-14.09,-44.73,-44.47,0,*64
1516143929.6,31905,8.5,71154.0,-14.09,-44.53,-44.47,0,*67
1516143930.89,31906,8.5,71162.5,-14.09,-44.47,-44.47,0,*61
1516143932.15,31907,8.5,71168.8,-14.11,-44.47,-44.33,0,*6A
1516143933.41,31908,8.5,71168.5,-14.11,-44.13,-44.13,0,*66
1516143934.68,31909,8.5,71182.5,-14.09,-44.07,-44.13,0,*6B
1516143935.97,31910,8.5,71178.0,-14.09,-44.13,-44.13,0,*66
1516143937.26,31911,8.5,71174.3,-14.09,-44.13,-44.13,0,*67
1516143938.5,31912,8.5,71174.8,-14.11,-44.27,-44.47,0,*6B
1516143939.73,31913,8.5,71164.0,-14.11,-44.47,-44.53,0,*69
1516143940.97,31914,8.5,71164.3,-14.09,-44.53,-44.53,0,*62
1516143942.23,31915,8.5,71164.3,-14.09,-44.53,-44.67,0,*64
1516143943.49,31916,8.5,71164.0,-14.11,-44.67,-44.67,0,*69
1516143944.76,31917,8.5,71162.0,-14.15,-44.73,-44.73,0,*6C
1516143946.03,31918,8.5,71158.8,-14.13,-44.73,-44.61,0,*66
1516143947.3,31919,8.5,71130.8,-14.13,-44.73,-44.61,0,*67
1516143948.54,31920,8.5,71124.5,-14.13,-44.61,-44.61,0,*6E
1516143949.79,31921,8.5,71110.8,-14.13,-44.53,-44.53,0,*6F
1516143951.02,31922,8.5,71106.0,-14.13,-44.41,-44.53,0,*6F
1516143952.29,31923,8.5,71106.3,-14.13,-44.73,-44.53,0,*6F
1516143953.57,31924,8.5,71122.0,-14.13,-44.79,-44.73,0,*60
1516143954.84,31925,8.5,71128.5,-14.13,-44.73,-44.61,0,*68
1516143956.11,31926,8.5,71136.5,-14.15,-44.73,-44.73,0,*6E
1516143957.35,31927,8.5,71124.5,-14.15,-44.73,-44.61,0,*6C
1516143958.57,31928,8.5,71132.5,-14.15,-44.61,-44.61,0,*60
1516143959.84,31929,8.5,71142.3,-14.13,-44.73,-44.79,0,*6D
1516143961.09,31930,8.5,71150.0,-14.15,-44.73,-44.61,0,*6A
1516143962.33,31931,8.5,71158.5,-14.15,-44.73,-44.53,0,*6A
1516143963.55,31932,8.5,71152.3,-14.15,-44.53,-44.41,0,*68
1516143964.77,31933,8.5,71146.5,-14.15,-44.61,-44.53,0,*6B
1516143965.99,31934,8.5,71152.8,-14.15,-44.79,-44.61,0,*64
1516143967.23,31935,8.5,71148.8,-14.15,-44.73,-44.53,0,*6E
1516143968.45,31936,8.5,71148.3,-14.15,-44.61,-44.53,0,*6E
1516143969.66,31937,8.5,71138.0,-14.15,-44.61,-44.53,0,*6F
1516143970.91,31938,8.5,71156.0,-14.15,-44.53,-44.33,0,*67
1516143972.15,31939,8.5,71158.5,-14.15,-44.41,-44.21,0,*66
1516143973.42,31940,8.5,71148.8,-14.15,-44.01,-43.81,0,*61
1516143974.69,31941,8.5,71136.8,-14.15,-44.21,-44.13,0,*6E
1516143975.99,31942,8.5,71120.8,-14.13,-44.21,-44.13,0,*6B
1516143977.26,31943,8.5,71132.0,-14.15,-44.33,-44.21,0,*6E
1516143978.5,31944,8.5,71130.5,-14.13,-44.61,-44.41,0,*6E
1516143979.74,31945,8.5,71120.8,-14.13,-44.41,-44.41,0,*6D
1516143980.98,31946,8.5,71112.5,-14.15,-44.41,-44.21,0,*6E
1516143982.25,31947,8.5,71154.0,-14.13,-44.01,-43.95,0,*65
1516143983.52,31948,8.5,71164.8,-14.15,-44.13,-44.21,0,*67
1516143984.76,31949,8.5,71162.3,-14.15,-43.95,-44.13,0,*6E
1516143986.03,31950,8.5,71168.8,-14.13,-43.81,-43.75,0,*62
1516143987.28,31951,8.5,71172.0,-14.13,-43.95,-43.95,0,*68
1516143988.53,31952,8.5,71172.5,-14.15,-44.01,-43.95,0,*67
1516143989.79,31953,8.5,71160.8,-14.13,-43.95,-44.01,0,*60
1516143991.06,31954,8.5,71160.8,-14.13,-43.95,-44.01,0,*67
1516143992.31,31955,8.5,71156.5,-14.13,-43.95,-43.95,0,*6C
1516143993.57,31956,8.5,71150.5,-14.15,-44.13,-44.13,0,*69
1516143994.86,31957,8.5,71128.5,-14.13,-44.01,-44.13,0,*6D
1516143996.13,31958,8.5,71112.8,-14.15,-44.13,-44.13,0,*67
1516143997.41,31959,8.5,71104.0,-14.13,-44.21,-43.95,0,*68
1516143998.65,31960,8.5,71138.3,-14.15,-43.95,-43.81,0,*69
1516143999.92,31961,8.5,71152.5,-14.13,-43.81,-43.95,0,*6E
1516144001.15,31962,8.5,71144.0,-14.11,-44.07,-44.13,0,*6F
1516144002.42,31963,8.5,71158.5,-14.13,-44.21,-44.41,0,*6F
1516144003.72,31964,8.5,71160.0,-14.13,-44.33,-44.33,0,*6E
1516144005.01,31965,8.5,71144.0,-14.13,-44.21,-44.33,0,*6C
1516144006.31,31966,8.5,71120.5,-14.13,-44.21,-44.21,0,*6C
1516144007.55,31967,8.5,71138.0,-14.13,-44.41,-44.41,0,*6D
1516144008.81,31968,8.5,71148.0,-14.13,-44.33,-44.41,0,*67
1516144010.06,31969,8.5,71138.8,-14.15,-44.53,-44.33,0,*63
1516144011.3,31970,8.5,71128.0,-14.13,-44.41,-44.41,0,*6B
1516144012.55,31971,8.5,71120.3,-14.11,-44.67,-44.47,0,*6A
1516144013.83,31972,8.5,71120.3,-14.13,-44.79,-44.73,0,*63
1516144015.08,31973,8.5,71132.5,-14.13,-44.79,-44.61,0,*61
1516144016.32,31974,8.5,71148.5,-14.13,-44.61,-44.61,0,*6F
1516144017.59,31975,8.5,71138.5,-14.13,-44.73,-44.53,0,*6C
1516144018.8,31976,8.5,71128.0,-14.15,-44.41,-44.41,0,*6B
1516144020.07,31977,8.5,71146.8,-14.13,-44.41,-44.33,0,*69
1516144021.33,31978,8.5,71164.3,-14.13,-44.41,-44.33,0,*66
1516144022.55,31979,8.5,71170.0,-14.11,-43.95,-43.87,0,*63
1516144023.84,31980,8.5,71182.8,-14.13,-43.81,-43.55,0,*6D
1516144025.13,31981,8.5,71192.0,-14.13,-43.55,-43.29,0,*6E
1516144026.43,31982,8.5,71184.8,-14.13,-43.29,-42.95,0,*60
1516144027.7,31983,8.5,71178.8,-14.09,-43.01,-42.83,0,*67
1516144028.99,31984,8.5,71168.8,-14.09,-43.21,-42.83,0,*62
1516144030.26,31985,8.5,71158.3,-14.09,-43.09,-42.89,0,*63
1516144031.53,31986,8.5,71132.0,-14.05,-43.35,-42.95,0,*6E
1516144032.82,31987,8.5,71110.5,-14.05,-43.21,-42.83,0,*6D
1516144034.08,31988,8.5,71130.0,-14.05,-43.15,-42.83,0,*65
1516144035.32,31989,8.5,71146.0,-14.05,-43.35,-43.01,0,*6D
1516144036.62,31990,8.5,71152.8,-14.05,-43.55,-43.21,0,*61
1516144037.89,31991,8.5,71122.3,-14.05,-43.81,-43.41,0,*6F
1516144039.1,31992,8.5,71114.8,-14.03,-43.87,-43.61,0,*6E
1516144040.33,31993,8.5,71116.0,-14.05,-43.87,-43.87,0,*61
1516144041.6,31994,8.5,71118.8,-14.05,-44.07,-44.01,0,*60
1516144042.89,31995,8.5,71124.8,-14.05,-44.01,-43.81,0,*68
1516144044.16,31996,8.5,71138.0,-14.05,-43.87,-43.67,0,*6A
1516144045.42,31997,8.5,71138.0,-14.03,-43.81,-43.55,0,*6A
1516144046.69,31998,8.5,71140.5,-14.01,-43.75,-43.29,0,*67
1516144047.91,31999,8.5,71130.0,-14.03,-43.61,-43.35,0,*6C
1516144049.16,32000,8.5,71136.0,-14.01,-43.61,-43.35,0,*64
1516144050.41,32001,8.5,71134.0,-14.01,-43.61,-43.35,0,*65
1516144051.69,32002,8.5,71148.5,-14.01,-43.55,-43.35,0,*61
1516144052.93,32003,8.5,71158.0,-14.01,-43.75,-43.49,0,*69
1516144054.21,32004,8.5,71162.5,-14.01,-43.75,-43.55,0,*63
1516144055.5,32005,8.5,71154.3,-14.01,-43.81,-43.55,0,*69
1516144056.77,32006,8.5,71136.5,-14.01,-43.95,-43.55,0,*6F
1516144058.04,32007,8.5,71142.0,-14.01,-44.21,-43.95,0,*6A
1516144059.28,32008,8.5,71136.8,-14.03,-44.21,-43.87,0,*64
1516144060.5,32009,8.5,71136.3,-14.03,-44.27,-44.07,0,*6C
1516144061.76,32010,8.5,71130.8,-14.03,-44.01,-43.81,0,*69
1516144063.0,32011,8.5,71138.8,-14.03,-44.21,-44.07,0,*63
1516144064.27,32012,8.5,71158.8,-14.05,-44.41,-44.21,0,*64
1516144065.49,32013,8.5,71166.8,-14.03,-44.27,-44.27,0,*65
1516144066.73,32014,8.5,71174.3,-14.03,-44.07,-44.21,0,*66
1516144068.0,32015,8.5,71180.3,-14.03,-44.21,-44.21,0,*63
1516144069.24,32016,8.5,71182.3,-14.03,-44.07,-44.21,0,*64
1516144070.51,32017,8.5,71186.8,-14.03,-44.21,-44.21,0,*61
1516144071.75,32018,8.5,71188.5,-14.05,-44.07,-43.87,0,*67
1516144073.01,32019,8.5,71186.0,-14.05,-44.01,-43.87,0,*60
1516144074.25,32020,8.5,71186.8,-14.05,-44.07,-43.87,0,*6C
1516144075.53,32021,8.5,71184.8,-14.05,-44.21,-44.07,0,*66
1516144076.8,32022,8.5,71184.5,-14.05,-44.27,-44.01,0,*65
1516144078.05,32023,8.5,71176.3,-14.05,-44.27,-44.27,0,*60
1516144079.31,32024,8.5,71174.5,-14.05,-44.07,-44.01,0,*61
1516144080.55,32025,8.5,71166.3,-14.05,-44.07,-43.87,0,*69
1516144081.82,32026,8.5,71168.3,-14.05,-44.07,-44.01,0,*63
1516144083.12,32027,8.5,71170.3,-14.05,-44.21,-44.21,0,*64
1516144084.4,32028,8.5,71176.3,-14.05,-44.27,-44.21,0,*6D
1516144085.7,32029,8.5,71172.0,-14.05,-44.21,-44.21,0,*6A
1516144086.94,32030,8.5,71172.5,-14.05,-44.41,-44.27,0,*62
1516144088.19,32031,8.5,71178.8,-14.05,-44.27,-44.27,0,*63
1516144089.46,32032,8.5,71160.5,-14.05,-44.07,-44.21,0,*64
1516144090.71,32033,8.5,71170.0,-14.05,-44.27,-44.27,0,*61
1516144091.98,32034,8.5,71170.3,-14.05,-44.07,-44.01,0,*60
1516144093.27,32035,8.5,71170.8,-14.05,-44.01,-44.01,0,*67
1516144094.53,32036,8.5,71170.0,-14.05,-43.87,-44.01,0,*6D
1516144095.79,32037,8.5,71168.3,-14.05,-43.87,-44.01,0,*6C
1516144097.07,32038,8.5,71178.0,-14.05,-44.21,-44.07,0,*6E
1516144098.34,32039,8.5,71174.5,-14.05,-44.27,-44.21,0,*6D
1516144099.59,32040,8.5,71172.3,-14.05,-44.07,-44.07,0,*65
1516144100.86,32041,8.5,71172.8,-14.05,-44.21,-44.27,0,*62
1516144102.13,32042,8.5,71166.0,-14.05,-44.21,-44.27,0,*61
1516144103.4,32043,8.5,71162.5,-14.09,-44.27,-44.47,0,*6C
1516144104.66,32044,8.5,71164.0,-14.09,-44.33,-44.53,0,*6B
1516144105.9,32045,8.5,71168.3,-14.05,-44.41,-44.41,0,*60
1516144107.18,32046,8.5,71170.8,-14.09,-44.33,-44.47,0,*6C
1516144108.39,32047,8.5,71176.5,-14.11,-44.53,-44.53,0,*67
1516144109.66,32048,8.5,71176.8,-14.09,-44.47,-44.53,0,*64
1516144110.91,32049,8.56,71184.0,-14.11,-44.47,-44.47,0,*69